Weather History for Kremmling, CO

Change the Weather History Date:

Monday, March 24, 2014

  Actual Average (KEGE) Record (KEGE)
Temperature  
Mean Temperature 36 °F -  
Max Temperature 50 °F 52 °F 69 °F (2012)
Min Temperature 23 °F 23 °F 2 °F (1952)
Degree Days  
Heating Degree Days 28    
Moisture  
Dew Point 7 °F    
Average Humidity 33    
Maximum Humidity 63    
Minimum Humidity 16    
Precipitation  
Precipitation 0.00 in - - ()
Sea Level Pressure  
Sea Level Pressure 30.18 in    
Wind  
Wind Speed 6 mph (WNW)    
Max Wind Speed 18 mph    
Max Gust Speed 30 mph    
Visibility 10 miles    
Events      
Averages and records for this station are not official NWS values.
T = Trace of Precipitation, MM = Missing Value Source: NWS Daily Summary

Daily Weather History Graph

Daily Weather History Graph

Search for Another Location

Airport:

Trip Planner

Search our weather history database for the weather conditions in past years. The results will help you decide how hot, cold, wet, or windy it might be!

Date:

Astronomy

Mar. 24, 2014 Rise Set
Actual Time 7:02 AM MDT 7:21 PM MDT
Civil Twilight 6:35 AM MDT 7:48 PM MDT
Nautical Twilight 6:03 AM MDT 8:20 PM MDT
Astronomical Twilight 5:30 AM MDT 8:53 PM MDT
Moon 2:34 AM MDT (3/24) 12:50 PM MDT (3/24)
Length of Visible Light 13h 13m
Length of Day
12h 19m
Last Quarter, 42% of the Moon is Illuminated
Mar 24
Last Quarter
Mar 30
New
Apr 7
First Quarter
Apr 15
Full
Apr 22
Last Quarter

Hourly Weather History & Observations

Time (MDT) Temp. Windchill Dew Point Humidity Pressure Visibility Wind Dir Wind Speed Gust Speed Precip Events Conditions
12:16 AM 33.8 °F - 1.4 °F 25% 30.14 in 10.0 mi Calm Calm - N/A   Clear
12:36 AM 33.8 °F - 3.2 °F 28% 30.14 in 10.0 mi Calm Calm - N/A   Clear
12:56 AM 32.0 °F - 1.4 °F 27% 30.14 in 10.0 mi Calm Calm - N/A   Clear
1:16 AM 28.4 °F - 10.4 °F 47% 30.14 in 10.0 mi Calm Calm - N/A   Clear
1:36 AM 28.4 °F 23.3 °F 10.4 °F 47% 30.14 in 10.0 mi East 4.6 mph - N/A   Clear
1:56 AM 28.4 °F - 12.2 °F 51% 30.14 in 10.0 mi Calm Calm - N/A   Clear
2:16 AM 30.2 °F 25.4 °F 5.0 °F 34% 30.13 in 10.0 mi SE 4.6 mph - N/A   Clear
2:36 AM 30.2 °F 24.3 °F 10.4 °F 44% 30.12 in 10.0 mi ESE 5.8 mph - N/A   Clear
2:56 AM 28.4 °F - 10.4 °F 47% 30.12 in 10.0 mi Calm Calm - N/A   Clear
3:16 AM 26.6 °F 22.6 °F 10.4 °F 51% 30.12 in 10.0 mi ENE 3.5 mph - N/A   Clear
3:36 AM 24.8 °F - 12.2 °F 59% 30.12 in 10.0 mi Calm Calm - N/A   Clear
3:56 AM 23.0 °F - 12.2 °F 63% 30.11 in 10.0 mi Calm Calm - N/A   Clear
4:16 AM 24.8 °F - 12.2 °F 59% 30.12 in 10.0 mi Calm Calm - N/A   Clear
4:36 AM 23.0 °F - 12.2 °F 63% 30.12 in 10.0 mi Calm Calm - N/A   Clear
4:56 AM 23.0 °F 14.7 °F 12.2 °F 63% 30.12 in 10.0 mi SE 6.9 mph - N/A   Clear
5:16 AM 23.0 °F 14.7 °F 12.2 °F 63% 30.12 in 10.0 mi ESE 6.9 mph - N/A   Scattered Clouds
5:36 AM 26.6 °F - 10.4 °F 51% 30.12 in 10.0 mi Calm Calm - N/A   Scattered Clouds
5:56 AM 30.2 °F 25.4 °F 8.6 °F 40% 30.12 in 10.0 mi SW 4.6 mph - N/A   Clear
6:15 AM 30.2 °F 22.6 °F 8.6 °F 40% 30.13 in 10.0 mi WSW 8.1 mph - N/A   Clear
6:35 AM 30.2 °F 22.6 °F 10.4 °F 44% 30.14 in 10.0 mi WSW 8.1 mph - N/A   Clear
6:56 AM 26.6 °F 18.2 °F 10.4 °F 51% 30.15 in 10.0 mi West 8.1 mph - N/A   Clear
7:16 AM 28.4 °F 17.0 °F 8.6 °F 43% 30.16 in 10.0 mi West 15.0 mph 18.4 mph N/A   Clear
7:36 AM 30.2 °F 24.3 °F 8.6 °F 40% 30.17 in 10.0 mi West 5.8 mph - N/A   Clear
7:56 AM 32.0 °F - 5.0 °F 32% 30.19 in 10.0 mi Calm Calm - N/A   Clear
8:15 AM 33.8 °F - 8.6 °F 35% 30.19 in 10.0 mi Calm Calm - N/A   Clear
8:36 AM 35.6 °F - 5.0 °F 28% 30.20 in 10.0 mi Calm Calm - N/A   Clear
8:55 AM 35.6 °F 28.0 °F 5.0 °F 28% 30.21 in 10.0 mi NW 10.4 mph - N/A   Scattered Clouds
9:15 AM 35.6 °F 27.1 °F 5.0 °F 28% 30.21 in 10.0 mi NNW 12.7 mph 17.3 mph N/A   Scattered Clouds
9:36 AM 35.6 °F 28.0 °F 5.0 °F 28% 30.22 in 10.0 mi NW 10.4 mph 20.7 mph N/A   Clear
9:56 AM 35.6 °F 26.6 °F 5.0 °F 28% 30.22 in 10.0 mi NW 13.8 mph 23.0 mph N/A   Clear
10:15 AM 37.4 °F 29.3 °F 5.0 °F 26% 30.22 in 10.0 mi NW 12.7 mph 20.7 mph N/A   Clear
10:35 AM 37.4 °F 27.8 °F 6.8 °F 28% 30.22 in 10.0 mi NW 17.3 mph 21.9 mph N/A   Clear
10:55 AM 37.4 °F 28.5 °F 8.6 °F 30% 30.22 in 10.0 mi NW 15.0 mph 23.0 mph N/A   Clear
11:16 AM 37.4 °F 28.9 °F 6.8 °F 28% 30.21 in 10.0 mi NW 13.8 mph 17.3 mph N/A   Clear
11:36 AM 41.0 °F 34.3 °F 5.0 °F 23% 30.21 in 10.0 mi WNW 11.5 mph 19.6 mph N/A   Clear
11:56 AM 42.8 °F 35.1 °F 5.0 °F 21% 30.21 in 10.0 mi West 16.1 mph 20.7 mph N/A   Clear
12:15 PM 42.8 °F 35.4 °F 1.4 °F 18% 30.21 in 10.0 mi WNW 15.0 mph 24.2 mph N/A   Clear
12:35 PM 42.8 °F 34.5 °F 3.2 °F 19% 30.22 in 10.0 mi West 18.4 mph 26.5 mph N/A   Clear
12:55 PM 42.8 °F 36.6 °F 1.4 °F 18% 30.22 in 10.0 mi NW 11.5 mph 23.0 mph N/A   Clear
1:15 PM 42.8 °F 35.4 °F 1.4 °F 18% 30.22 in 10.0 mi NW 15.0 mph 24.2 mph N/A   Clear
1:35 PM 42.8 °F 35.8 °F -0.4 °F 16% 30.21 in 10.0 mi NW 13.8 mph 25.3 mph N/A   Clear
1:56 PM 44.6 °F 38.1 °F 1.4 °F 17% 30.21 in 10.0 mi WNW 13.8 mph 21.9 mph N/A   Clear
2:16 PM 46.4 °F 40.7 °F 3.2 °F 17% 30.21 in 10.0 mi West 12.7 mph 24.2 mph N/A   Clear
2:36 PM 46.4 °F 40.7 °F 5.0 °F 18% 30.20 in 10.0 mi WNW 12.7 mph 18.4 mph N/A   Clear
2:55 PM 46.4 °F 39.5 °F 6.8 °F 20% 30.18 in 10.0 mi West 17.3 mph 29.9 mph N/A   Clear
3:16 PM 46.4 °F 39.5 °F 8.6 °F 22% 30.18 in 10.0 mi West 17.3 mph 29.9 mph N/A   Clear
3:36 PM 48.2 °F - 5.0 °F 17% 30.19 in 10.0 mi WNW 9.2 mph 28.8 mph N/A   Scattered Clouds
3:56 PM 46.4 °F 39.5 °F 8.6 °F 22% 30.19 in 10.0 mi West 17.3 mph 27.6 mph N/A   Overcast
4:16 PM 44.6 °F 38.8 °F 5.0 °F 20% 30.18 in 10.0 mi NW 11.5 mph 19.6 mph N/A   Overcast
4:36 PM 44.6 °F 37.8 °F 8.6 °F 23% 30.18 in 10.0 mi WSW 15.0 mph 25.3 mph N/A   Overcast
4:56 PM 48.2 °F - 6.8 °F 19% 30.18 in 10.0 mi WNW 12.7 mph 28.8 mph N/A   Overcast
5:16 PM 46.4 °F 40.1 °F 5.0 °F 18% 30.17 in 10.0 mi West 15.0 mph 25.3 mph N/A   Overcast
5:36 PM 50.0 °F - 6.8 °F 17% 30.17 in 10.0 mi West 10.4 mph 19.6 mph N/A   Overcast
5:56 PM 50.0 °F - 5.0 °F 16% 30.17 in 10.0 mi West 12.7 mph 18.4 mph N/A   Overcast
6:16 PM 46.4 °F 40.7 °F 5.0 °F 18% 30.18 in 10.0 mi West 12.7 mph 25.3 mph N/A   Mostly Cloudy
6:36 PM 42.8 °F 36.2 °F 5.0 °F 21% 30.18 in 10.0 mi West 12.7 mph 23.0 mph N/A   Scattered Clouds
6:56 PM 42.8 °F 37.0 °F 5.0 °F 21% 30.18 in 10.0 mi West 10.4 mph 17.3 mph N/A   Scattered Clouds
7:16 PM 41.0 °F 38.0 °F 8.6 °F 26% 30.19 in 10.0 mi West 4.6 mph - N/A   Overcast
7:36 PM 41.0 °F 35.8 °F 6.8 °F 24% 30.19 in 10.0 mi WSW 8.1 mph - N/A   Overcast
7:56 PM 41.0 °F 35.8 °F 6.8 °F 24% 30.19 in 10.0 mi West 8.1 mph 16.1 mph N/A   Overcast
8:16 PM 41.0 °F 34.3 °F 5.0 °F 23% 30.19 in 10.0 mi West 11.5 mph - N/A   Overcast
8:36 PM 37.4 °F 34.9 °F 8.6 °F 30% 30.20 in 10.0 mi WNW 3.5 mph - N/A   Mostly Cloudy
8:56 PM 35.6 °F 31.7 °F 8.6 °F 33% 30.20 in 10.0 mi WNW 4.6 mph - N/A   Scattered Clouds
9:16 PM 33.8 °F 29.6 °F 10.4 °F 38% 30.20 in 10.0 mi West 4.6 mph - N/A   Clear
9:36 PM 35.6 °F 31.7 °F 12.2 °F 38% 30.21 in 10.0 mi WNW 4.6 mph - N/A   Clear
9:55 PM 35.6 °F 29.9 °F 10.4 °F 35% 30.21 in 10.0 mi West 6.9 mph - N/A   Clear
10:16 PM 33.8 °F 26.4 °F 10.4 °F 38% 30.21 in 10.0 mi West 9.2 mph - N/A   Clear
10:36 PM 33.8 °F 28.6 °F 14.0 °F 44% 30.21 in 10.0 mi WNW 5.8 mph - N/A   Clear
10:56 PM 33.8 °F 29.6 °F 12.2 °F 41% 30.21 in 10.0 mi WNW 4.6 mph - N/A   Clear
11:16 PM 33.8 °F - 10.4 °F 38% 30.22 in 10.0 mi Calm Calm - N/A   Clear
11:36 PM 30.2 °F 26.7 °F 14.0 °F 51% 30.22 in 10.0 mi SE 3.5 mph - N/A   Clear
11:56 PM 33.8 °F - 10.4 °F 38% 30.23 in 10.0 mi Calm Calm - N/A   Clear